Regional Weather Roundup
Issued by NWS Kansas City/Pleasant Hill, MO

Home | Current Version | Previous Version | Text Only | Print | Product List | Glossary On
Versions: 1 2 3 4 5 6 7 8 9 10 11 12 13 14 15 16 17 18 19 20 21 22 23 24 25 26 27 28 29 30 31 32 33 34 35 36 37 38 39 40 41 42 43 44 45 46 47 48 49 50
000
ASUS43 KEAX 302004
RWREAX

WEATHER ROUNDUP FOR EASTERN KANSAS AND NORTHWEST MISSOURI
NATIONAL WEATHER SERVICE KANSAS CITY/PLEASANT HILL MO
200 PM CST FRI JAN 30 2015

KSZ040-057-103>105-MOZ028-029-037-043-302100-
...KANSAS CITY METROPOLITAN AREA...

CITY           SKY/WX    TMP DP  RH WIND       PRES   REMARKS
K.C. INTL      CLOUDY    37  19  48 S7        30.46F WCI  32
K.C. DOWNTOWN  MOSUNNY   39  18  42 CALM      30.47F
LEES SUMMIT    MOSUNNY   38  17  42 S6        30.46F WCI  33
OLATHE - IXD   MOSUNNY   37  21  52 SE6       30.46F WCI  32
OLATHE - OJC   MOSUNNY   38  19  46 MISG      30.45F
LAWRENCE       MOSUNNY   37  22  54 CALM      30.47F

$$

MOZ001>008-011>017-020>025-030>033-038>040-044>046-053-054-302100-
...NORTHERN AND CENTRAL MISSOURI...

CITY           SKY/WX    TMP DP  RH WIND       PRES   REMARKS
ST. JOSEPH     PTSUNNY   36  19  50 S7        30.47F WCI  30
MOSBY          PTCLDY    36  18  48 S6        30.48F WCI  31
WARRENSBURG    MOSUNNY   37  19  48 CALM      30.48F
WHITEMAN AFB   NOT AVBL
CLINTON        MOSUNNY   39  23  52 NW5       30.49F
SEDALIA        PTSUNNY   38  20  48 E3        30.48F
WARSAW         NOT AVBL
MARSHALL       MOSUNNY   37  23  56 S3        30.51F
CHILLICOTHE      N/A     37  19  48 SE6       30.49F WCI  32
MOBERLY        SUNNY     39  18  41 CALM      30.48F
KIRKSVILLE     SUNNY     35  19  52 S6        30.47F WCI  30

$$

MOZ041-047>049-056>058-063>065-088>090-097-302100-
...EASTERN AND SOUTHERN MISSOURI...

CITY           SKY/WX    TMP DP  RH WIND       PRES   REMARKS
ST. LOUIS INTL MOSUNNY   40  16  37 CALM      30.49
SPIRIT OF STL  MOSUNNY   38  15  39 CALM      30.49F
COLUMBIA       MOSUNNY   37  16  42 CALM      30.47F
JEFFERSON CITY MOSUNNY   37  18  46 S5        30.49F WCI  33
MEXICO         SUNNY     37  25  60 CALM      30.49F
HANNIBAL       SUNNY     37  12  35 W5        30.48F WCI  34
ROLLA          SUNNY     39  17  41 N3        30.44F
LEBANON        MOSUNNY   45  14  29 NE5       30.44F
OSAGE BEACH    MOSUNNY   41  19  42 W3        30.47F
SPRINGFIELD    SUNNY     45  14  28 W5        30.43F
BRANSON        PTSUNNY   48  14  25 SE6       30.45F
NEVADA         FAIR      41  23  48 CALM      30.48F
JOPLIN         SUNNY     44  22  41 CALM      30.45F
WEST PLAINS    SUNNY     46  15  28 CALM      30.44F

$$

IAZ060-094-KSZ022-034>040-054-083-096-NEZ052-066-093-302100-
...KANSAS...SOUTHEAST NEBRASKA AND IOWA...

CITY           SKY/WX    TMP DP  RH WIND       PRES   REMARKS
TOPEKA         PTSUNNY   38  23  55 VRB3      30.46F
MANHATTAN      PTSUNNY   43  27  53 S6        30.43F
EMPORIA        PTSUNNY   40  25  55 MISG      30.43F
CHANUTE        SUNNY     42  25  50 VRB3      30.45F
WICHITA        CLOUDY    42  25  50 S7        30.43F
OMAHA          CLOUDY    35  22  58 S12       30.40F WCI  27
LINCOLN        PTSUNNY   40  25  55 S12       30.39F WCI  33
FALLS CITY     PTSUNNY   37  22  54 SW5       30.44F WCI  33
LAMONI         SUNNY     33  12  41 SW6       30.44F WCI  28
DES MOINES     MOSUNNY   33  13  43 S10       30.44F WCI  25

$$



USA.gov is the U.S. government's official web portal to all federal, state and local government web resources and services.